TimePST,TemperatureF,Dew PointF,Humidity,Sea Level PressureIn,VisibilityMPH,Wind Direction,Wind SpeedMPH,Gust SpeedMPH,PrecipitationIn,Events,Conditions,WindDirDegrees,DateUTC
12:56 AM,7.0,3.0,84,30.32,10.0,NNE,5.8,-,N/A,,Clear,30,2013-01-02 08:56:00
1:56 AM,6.1,3.0,87,30.31,10.0,Calm,Calm,-,N/A,,Clear,0,2013-01-02 09:56:00
2:56 AM,7.0,1.9,80,30.32,10.0,Calm,Calm,-,N/A,,Clear,0,2013-01-02 10:56:00
3:56 AM,5.0,1.0,84,30.31,10.0,Calm,Calm,-,N/A,,Clear,0,2013-01-02 11:56:00
4:56 AM,3.0,-0.9,84,30.31,9.0,Calm,Calm,-,N/A,,Clear,0,2013-01-02 12:56:00
5:56 AM,3.0,-0.0,87,30.31,10.0,South,4.6,-,N/A,,Clear,180,2013-01-02 13:56:00
6:20 AM,1.4,-2.2,85,30.44,10.0,Calm,Calm,-,N/A,,Partly Cloudy,0,2013-01-02 14:20:00
6:56 AM,3.0,-0.0,87,30.30,8.0,South,3.5,-,N/A,,Scattered Clouds,180,2013-01-02 14:56:00
7:56 AM,3.9,1.0,88,30.31,7.0,ESE,5.8,-,N/A,,Scattered Clouds,120,2013-01-02 15:56:00
8:56 AM,12.0,9.0,88,30.31,8.0,Calm,Calm,-,N/A,,Scattered Clouds,0,2013-01-02 16:56:00
9:56 AM,17.1,14.0,88,30.30,10.0,Calm,Calm,-,N/A,,Scattered Clouds,0,2013-01-02 17:56:00
10:56 AM,21.9,15.1,75,30.30,10.0,Variable,3.5,-,N/A,,Scattered Clouds,0,2013-01-02 18:56:00
11:56 AM,23.0,15.1,72,30.27,10.0,NE,3.5,-,N/A,,Scattered Clouds,50,2013-01-02 19:56:00
12:56 PM,26.1,15.1,63,30.25,10.0,Calm,Calm,-,N/A,,Partly Cloudy,0,2013-01-02 20:56:00
1:56 PM,27.0,15.1,61,30.24,10.0,North,3.5,-,N/A,,Partly Cloudy,360,2013-01-02 21:56:00
2:56 PM,28.0,15.1,58,30.24,10.0,Variable,3.5,-,N/A,,Partly Cloudy,0,2013-01-02 22:56:00
3:56 PM,28.0,16.0,61,30.23,10.0,NE,5.8,-,N/A,,Partly Cloudy,40,2013-01-02 23:56:00
4:56 PM,23.0,15.1,72,30.25,10.0,NNE,3.5,-,N/A,,Partly Cloudy,20,2013-01-03 00:56:00
5:56 PM,19.9,14.0,78,30.26,10.0,NE,4.6,-,N/A,,Clear,50,2013-01-03 01:56:00
6:56 PM,17.1,12.9,84,30.26,10.0,ENE,5.8,-,N/A,,Clear,60,2013-01-03 02:56:00
7:56 PM,14.0,10.0,84,30.25,10.0,East,4.6,-,N/A,,Clear,90,2013-01-03 03:56:00
8:56 PM,12.0,10.0,92,30.25,8.0,NNE,3.5,-,N/A,,Clear,20,2013-01-03 04:56:00
9:56 PM,10.0,6.1,84,30.25,7.0,NNE,4.6,-,N/A,,Clear,30,2013-01-03 05:56:00
10:56 PM,8.1,5.0,87,30.24,8.0,NNE,5.8,-,N/A,,Clear,30,2013-01-03 06:56:00
11:56 PM,7.0,5.0,92,30.22,9.0,NE,6.9,-,N/A,,Clear,40,2013-01-03 07:56:00